This is the latest recevied weather packets stored in our database for station/object VK4TOM-13. If no packets are shown the sender has not sent any weather packets the latest 10 day(s).
| Time | Temp. | Humidity | Pressure | Rain* | Wind** | Luminosity | Snow |
|---|---|---|---|---|---|---|---|
| 1788054969 | 26.11° C | 70% | 1025.6 hPa | 0 mm | - | - | - |
| 1788054367 | 25.56° C | 70% | 1025.8 hPa | 0 mm | - | - | - |
| 1788053944 | 25.56° C | 70% | 1025.8 hPa | 0 mm | - | - | - |
| 1788053343 | 25.56° C | 70% | 1025.8 hPa | 0 mm | - | - | - |
| 1788052141 | 24.44° C | 70% | 1026.3 hPa | 0 mm | - | - | - |
| 1788050939 | 24.44° C | 70% | 1026.6 hPa | 0 mm | - | - | - |
| 1788050338 | 25° C | 70% | 1026.6 hPa | 0 mm | - | - | - |
| 1788049556 | 24.44° C | 70% | 1026.7 hPa | 0 mm | - | - | - |
| 1788045351 | 22.22° C | 70% | 1026.8 hPa | 0 mm | - | - | - |
| 1788044750 | 21.67° C | 70% | 1027 hPa | 0 mm | - | - | - |
| 1788044149 | 21.11° C | 70% | 1027 hPa | 0 mm | - | - | - |
| 1788043347 | 20.56° C | 70% | 1027 hPa | 0 mm | - | - | - |
| 1788042996 | 20.56° C | 70% | 1026.9 hPa | 0 mm | - | - | - |
| 1788042394 | 20° C | 70% | 1026.8 hPa | 0 mm | - | - | - |
| 1788041793 | 19.44° C | 70% | 1026.9 hPa | 0 mm | - | - | - |
| 1788041193 | 18.33° C | 70% | 1026.8 hPa | 0 mm | - | - | - |
| 1788040605 | 17.78° C | 70% | 1026.8 hPa | 0 mm | - | - | - |
| 1788039389 | 17.22° C | 70% | 1026.6 hPa | 0 mm | - | - | - |
| 1788038788 | 16.67° C | 70% | 1026.5 hPa | 0 mm | - | - | - |
| 1788038187 | 16.67° C | 70% | 1026.5 hPa | 0 mm | - | - | - |
| 1788037586 | 16.67° C | 70% | 1026.3 hPa | 0 mm | - | - | - |
| 1788036985 | 16.11° C | 70% | 1026.2 hPa | 0 mm | - | - | - |
| 1788035783 | 16.11° C | 70% | 1026.1 hPa | 0 mm | - | - | - |
| 1788035182 | 16.11° C | 70% | 1025.9 hPa | 0 mm | - | - | - |
| 1788034581 | 16.11° C | 70% | 1025.8 hPa | 0 mm | - | - | - |
* Rain since midnight (hover to see other rain measurements)
** Current wind speed in m/s (hover to see current wind gust speed)